Regional Weather Roundup
Issued by NWS

Home | Current Version | Previous Version | Graphics & Text | Print | Product List | Glossary Off
Versions: 1 2 3 4 5 6 7 8 9 10 11 12 13 14 15 16 17 18 19 20 21 22 23 24 25 26 27 28 29 30 31 32 33 34 35 36 37 38 39 40 41 42 43 44 45 46 47 48 49 50

000
ASUS43 KTOP 230208
RWRKS

WEATHER ROUNDUP FOR KANSAS
NATIONAL WEATHER SERVICE GOODLAND KS
800 PM CST SUN JAN 22 2017

NOTE:  "FAIR" INDICATES FEW OR NO CLOUDS BELOW 12,000 FEET WITH NO
SIGNIFICANT WEATHER AND/OR OBSTRUCTIONS TO VISIBILITY.

KSZ001>006-013>018-027>032-041>047-230300-
NORTHWEST KANSAS

CITY           SKY/WX    TMP DP  RH WIND       PRES   REMARKS
GOODLAND       CLEAR     30  24  78 W10       29.92R WCI  21
HAYS           CLEAR     37  27  67 NW3       29.91S
HILL CITY      CLEAR     33  27  78 W5        29.91S
RUSSELL        CLEAR     38  26  62 NW5       29.89F
$$

KSZ061>065-074>080-084>089-230300-
SOUTHWEST KANSAS

CITY           SKY/WX    TMP DP  RH WIND       PRES   REMARKS
DODGE CITY     CLEAR     32  25  75 W8        29.94S
ELKHART          N/A     37  20  50 W3          N/A
GARDEN CITY    CLEAR     33  26  75 W8        29.94R
GREAT BEND     CLEAR     33  28  81 NW6       29.91S
LIBERAL          N/A     34  19  55 NW8       29.96S
PRATT          CLEAR     32  26  77 NW7       29.93R
$$

KSZ066>073-081>083-090>101-230300-
SOUTHEAST KANSAS

CITY           SKY/WX    TMP DP  RH WIND       PRES   REMARKS
CHANUTE        CLOUDY    40  33  76 NW8       29.86S
COFFEYVILLE    CLOUDY    39  33  79 N10       29.88R WCI  32
HUTCHINSON     CLEAR     42  27  55 N7        29.90R
MEDICINE LODGE   N/A     36  27  69 CALM      29.92R
NEWTON         CLEAR     31  30  96 N8        29.91R
PARSONS        CLOUDY    40  33  76 N7        29.87R
WICHITA INTL   CLEAR     42  30  62 N8        29.90R
WICHITA JABRA  CLEAR     36  31  82 N9        29.90R
WICHITA MCCONL CLEAR     41  30  65 N8        29.90R
WINFIELD       CLEAR     38  31  76 N9        29.90R
$$

KSZ007>012-019>026-033>040-048>060-102>105-230300-
NORTHEAST KANSAS

CITY           SKY/WX    TMP DP  RH WIND       PRES   REMARKS
CONCORDIA      CLEAR     36  31  82 W5        29.90R
EMPORIA        CLEAR     33  30  88 W8        29.89R
LAWRENCE       CLOUDY    39  35  86 NW15      29.87R WCI  31
MANHATTAN      CLEAR     34  30  85 CALM      29.91R
MARYSVILLE     CLEAR     32  32 100 NW3       29.89R
OLATHE IND     CLOUDY    38  34  85 NW13      29.85R WCI  30
OLATHE EXE     CLOUDY    37  34  89 N12       29.83R WCI  29
SALINA         CLEAR     32  28  85 N3        29.93R
TOPEKA BILLARD CLOUDY    40  34  79 NW10      29.88R WCI  33
TOPEKA FORBES  CLOUDY    40  34  79 N9        29.87R
$$




USA.gov is the U.S. government's official web portal to all federal, state and local government web resources and services.